Regional Weather Roundup
Issued by NWS Kansas City/Pleasant Hill, MO

Home | Current Version | Previous Version | Graphics & Text | Print | Product List | Glossary Off
Versions: 1 2 3 4 5 6 7 8 9 10 11 12 13 14 15 16 17 18 19 20 21 22 23 24 25 26 27 28 29 30 31 32 33 34 35 36 37 38 39 40 41 42 43 44 45 46 47 48 49 50

000
ASUS43 KEAX 280511
RWREAX

WEATHER ROUNDUP FOR EASTERN KANSAS AND NORTHWEST MISSOURI
NATIONAL WEATHER SERVICE KANSAS CITY/PLEASANT HILL MO
1200 AM CDT MON JUL 28 2014

KSZ040-057-103>105-MOZ028-029-037-043-280600-
...KANSAS CITY METROPOLITAN AREA...

CITY           SKY/WX    TMP DP  RH WIND       PRES   REMARKS
K.C. INTL      CLEAR     65  58  78 N8        30.14R
K.C. DOWNTOWN  CLEAR     73  58  59 N7        30.12R
LEES SUMMIT    CLEAR     72  58  61 N10       30.13R
OLATHE - IXD   CLEAR     67  58  72 N8        30.14R
OLATHE - OJC   CLEAR     73  58  59 N8        30.13R
LAWRENCE       CLEAR     71  58  63 N9        30.14R

$$

MOZ001>008-011>017-020>025-030>033-038>040-044>046-053-054-280600-
...NORTHERN AND CENTRAL MISSOURI...

CITY           SKY/WX    TMP DP  RH WIND       PRES   REMARKS
ST. JOSEPH     CLEAR     63  59  87 N6        30.14S
MOSBY          CLEAR     68  59  73 NW3       30.12S
WARRENSBURG    CLEAR     68  57  68 NW6       30.11R
WHITEMAN AFB   CLEAR     69  49  48 N13       30.10R
CLINTON        CLEAR     66  61  82 N8        30.10R
SEDALIA        CLEAR     68  59  73 NW8       30.10R
WARSAW         NOT AVBL
MARSHALL       CLEAR     72  61  68 N7        30.11R
CHILLICOTHE      N/A     69  56  62 VRB3      30.12R
MOBERLY        CLEAR     66  55  68 NW7       30.08S
KIRKSVILLE     CLEAR     65  57  75 NW7       30.09R

$$

MOZ041-047>049-056>058-063>065-088>090-097-280600-
...EASTERN AND SOUTHERN MISSOURI...

CITY           SKY/WX    TMP DP  RH WIND       PRES   REMARKS
ST. LOUIS INTL CLEAR     72  59  63 NW7       30.00R
SPIRIT OF STL  CLEAR     72  58  61 NW8       30.00R
COLUMBIA       CLEAR     70  57  63 N13       30.06R
JEFFERSON CITY CLEAR     73  57  57 NW5       30.05R
MEXICO         CLEAR     68  63  83 NW7       30.06R
HANNIBAL       CLEAR     68  55  64 NW8       30.05R
ROLLA          CLEAR     70  57  63 N8        30.04R
LEBANON        CLEAR     70  57  64 NW5       30.09R
OSAGE BEACH      N/A     72  57  60 N5        30.07R
SPRINGFIELD    CLEAR     68  57  68 NW7       30.10R
BRANSON        CLEAR     72  61  68 NW5       30.10R
NEVADA         CLEAR     66  59  77 N6        30.13R
JOPLIN         CLEAR     69  62  78 N3        30.11R
WEST PLAINS    CLEAR     73  57  57 N8        30.06R

$$

IAZ060-094-KSZ022-034>040-054-083-096-NEZ052-066-093-280600-
...KANSAS...SOUTHEAST NEBRASKA AND IOWA...

CITY           SKY/WX    TMP DP  RH WIND       PRES   REMARKS
TOPEKA         CLEAR     71  58  63 N8        30.15R
MANHATTAN      CLEAR     71  59  65 N3        30.17R
EMPORIA        CLEAR     72  57  59 N9        30.16R
CHANUTE        CLEAR     70  56  61 N6        30.14R
WICHITA        PTCLDY    75  55  49 NE8       30.16S
OMAHA          CLEAR     66  57  72 N10       30.18R
LINCOLN        CLEAR     70  57  63 NW8       30.21R
LAMONI         CLEAR     64  56  75 NW9       30.12R
DES MOINES     CLEAR     67  57  70 NW12      30.09S

$$




USA.gov is the U.S. government's official web portal to all federal, state and local government web resources and services.